| time (UTC) | temp F | wind direction | speed knots | gust knots | rain 1hr in | rain 24hr in | rain mn in | humidity % | barometer mb |
| 20260504081253 | 41 | 145 | 0.0 | 1.7 | 0.00 | 0.00 | 0.00 | 84 | 1005.7 |
| 20260504080746 | 41 | 155 | 0.0 | 0.9 | 0.00 | 0.00 | 0.00 | 84 | 1005.8 |
| 20260504080517 | 41 | 155 | 0.0 | 0.9 | 0.00 | 0.00 | 0.00 | 83 | 1005.8 |
| 20260504070229 | 42 | 243 | 0.0 | 1.7 | 0.00 | 0.00 | 0.00 | 78 | 1005.8 |
| 20260504060210 | 41 | 214 | 0.0 | 1.7 | 0.00 | 0.00 | 0.00 | 69 | 1006.0 |
| 20260504050149 | 39 | 175 | 0.0 | 0.9 | 0.00 | 0.00 | 0.00 | 67 | 1006.2 |
| 20260504045646 | 39 | 175 | 0.0 | 0.9 | 0.00 | 0.00 | 0.00 | 67 | 1006.2 |
| 20260504045147 | 40 | 175 | 0.0 | 1.7 | 0.00 | 0.00 | 0.00 | 67 | 1006.3 |
| 20260504044643 | 40 | 175 | 0.0 | 1.7 | 0.00 | 0.00 | 0.00 | 66 | 1006.3 |
| 20260504044142 | 40 | 201 | 0.0 | 1.7 | 0.00 | 0.00 | 0.00 | 66 | 1006.4 |
| 20260504043643 | 40 | 190 | 0.0 | 1.7 | 0.00 | 0.00 | 0.00 | 65 | 1006.5 |
| 20260504043142 | 40 | 203 | 0.0 | 0.9 | 0.00 | 0.00 | 0.00 | 65 | 1006.6 |
| 20260504042642 | 40 | 208 | 0.0 | 0.9 | 0.00 | 0.00 | 0.00 | 64 | 1006.6 |
| 20260504042141 | 40 | 226 | 0.0 | 1.7 | 0.00 | 0.00 | 0.00 | 64 | 1006.6 |
| 20260504041934 | 40 | 188 | 0.0 | 1.7 | 0.00 | 0.00 | 0.00 | 63 | 1006.5 |
| 20260504041140 | 40 | 175 | 0.0 | 1.7 | 0.00 | 0.00 | 0.00 | 63 | 1006.5 |
| 20260504040636 | 40 | 182 | 0.0 | 1.7 | 0.00 | 0.00 | 0.00 | 63 | 1006.5 |
| 20260504040405 | 41 | 225 | 0.0 | 1.7 | 0.00 | 0.00 | 0.00 | 62 | 1006.5 |
| 20260504035631 | 41 | 200 | 0.0 | 0.9 | 0.00 | 0.00 | 0.00 | 62 | 1006.5 |
| 20260504035133 | 41 | 200 | 0.0 | 1.7 | 0.00 | 0.00 | 0.00 | 62 | 1006.5 |
| 20260504034901 | 41 | 215 | 0.0 | 1.7 | 0.00 | 0.00 | 0.00 | 61 | 1006.5 |
| 20260504034132 | 41 | 153 | 0.0 | 1.7 | 0.00 | 0.00 | 0.00 | 61 | 1006.5 |
| 20260504033628 | 41 | 205 | 0.0 | 1.7 | 0.00 | 0.00 | 0.00 | 61 | 1006.6 |
| 20260504033128 | 41 | 184 | 0.0 | 1.7 | 0.00 | 0.00 | 0.00 | 61 | 1006.6 |
| 20260504032128 | 41 | 226 | 0.0 | 1.7 | 0.00 | 0.00 | 0.00 | 61 | 1006.6 |
| 20260504031629 | 41 | 180 | 0.0 | 1.7 | 0.00 | 0.00 | 0.00 | 61 | 1006.7 |
| 20260504031126 | 41 | 235 | 0.0 | 1.7 | 0.00 | 0.00 | 0.00 | 61 | 1006.7 |
| 20260504030627 | 41 | 175 | 0.0 | 0.9 | 0.00 | 0.00 | 0.00 | 60 | 1006.7 |
| 20260504030127 | 41 | 161 | 0.0 | 0.9 | 0.00 | 0.00 | 0.00 | 60 | 1006.7 |
| 20260504025900 | 41 | 230 | 0.0 | 0.9 | 0.00 | 0.00 | 0.00 | 60 | 1006.7 |
| 20260504025127 | 42 | 230 | 0.0 | 0.0 | 0.00 | 0.00 | 0.00 | 60 | 1006.8 |
| 20260504024624 | 42 | 230 | 0.0 | 0.0 | 0.00 | 0.00 | 0.00 | 59 | 1006.9 |
| 20260504024123 | 42 | 230 | 0.0 | 0.0 | 0.00 | 0.00 | 0.00 | 58 | 1006.9 |
| 20260504023623 | 43 | 230 | 0.0 | 0.0 | 0.00 | 0.00 | 0.00 | 57 | 1006.9 |
| 20260504023119 | 43 | 230 | 0.0 | 0.9 | 0.00 | 0.00 | 0.00 | 57 | 1006.9 |
| 20260504022621 | 43 | 230 | 0.0 | 0.9 | 0.00 | 0.00 | 0.00 | 56 | 1007.0 |
| 20260504022114 | 44 | 230 | 0.0 | 0.9 | 0.00 | 0.00 | 0.00 | 55 | 1007.1 |
| 20260504021850 | 44 | 230 | 0.0 | 0.9 | 0.00 | 0.00 | 0.00 | 54 | 1007.1 |
| 20260504021114 | 44 | 229 | 0.0 | 1.7 | 0.00 | 0.00 | 0.00 | 54 | 1007.2 |
| 20260504020611 | 45 | 229 | 0.0 | 1.7 | 0.00 | 0.00 | 0.00 | 53 | 1007.2 |
| 20260504020111 | 45 | 236 | 0.0 | 1.7 | 0.00 | 0.00 | 0.00 | 52 | 1007.2 |
| 20260504015610 | 45 | 231 | 0.0 | 1.7 | 0.00 | 0.00 | 0.00 | 52 | 1007.1 |
| 20260504015112 | 46 | 245 | 0.0 | 3.5 | 0.00 | 0.00 | 0.00 | 52 | 1007.2 |
| 20260504014605 | 46 | 245 | 0.0 | 3.5 | 0.00 | 0.00 | 0.00 | 51 | 1007.2 |
| 20260504014105 | 46 | 245 | 0.0 | 4.3 | 0.00 | 0.00 | 0.00 | 52 | 1007.2 |
| 20260504013604 | 46 | 236 | 0.9 | 4.3 | 0.00 | 0.00 | 0.00 | 51 | 1007.3 |
| 20260504013334 | 46 | 224 | 0.9 | 3.5 | 0.00 | 0.00 | 0.00 | 51 | 1007.3 |
| 20260504012603 | 46 | 241 | 0.9 | 3.5 | 0.00 | 0.00 | 0.00 | 51 | 1007.3 |
| 20260504012104 | 45 | 193 | 0.0 | 2.6 | 0.00 | 0.00 | 0.00 | 53 | 1007.3 |
| 20260504011601 | 45 | 250 | 0.0 | 1.7 | 0.00 | 0.00 | 0.00 | 54 | 1007.3 |
| 20260504010829 | 45 | 240 | 0.0 | 0.9 | 0.00 | 0.00 | 0.00 | 55 | 1007.2 |
| 20260504010100 | 45 | 250 | 0.0 | 0.9 | 0.00 | 0.00 | 0.00 | 54 | 1007.1 |
| 20260504005558 | 46 | 250 | 0.0 | 0.9 | 0.00 | 0.00 | 0.00 | 55 | 1007.1 |
| 20260504005057 | 46 | 250 | 0.0 | 0.9 | 0.00 | 0.00 | 0.00 | 53 | 1007.0 |
| 20260504004555 | 46 | 250 | 0.0 | 0.9 | 0.00 | 0.00 | 0.00 | 52 | 1007.0 |
| 20260504004056 | 47 | 250 | 0.0 | 0.9 | 0.00 | 0.00 | 0.00 | 53 | 1007.0 |
| 20260504003553 | 47 | 250 | 0.0 | 0.9 | 0.00 | 0.00 | 0.00 | 52 | 1006.9 |
| 20260504003052 | 47 | 250 | 0.0 | 0.9 | 0.00 | 0.00 | 0.00 | 51 | 1006.9 |
| 20260504002546 | 48 | 250 | 0.0 | 1.7 | 0.00 | 0.00 | 0.00 | 50 | 1006.9 |
| 20260504002046 | 48 | 250 | 0.9 | 4.3 | 0.00 | 0.00 | 0.00 | 49 | 1006.9 |
| 20260504001545 | 49 | 250 | 0.9 | 4.3 | 0.00 | 0.00 | 0.00 | 48 | 1006.9 |
| 20260504000544 | 49 | 273 | 0.9 | 4.3 | 0.00 | 0.00 | 0.00 | 48 | 1006.9 |
| 20260504000045 | 49 | 264 | 0.9 | 4.3 | 0.00 | 0.00 | 0.00 | 48 | 1006.8 |
| 20260503235545 | 50 | 234 | 0.9 | 3.5 | 0.00 | 0.00 | 0.00 | 46 | 1006.8 |
| 20260503235039 | 50 | 260 | 0.9 | 3.5 | 0.00 | 0.00 | 0.00 | 46 | 1006.8 |
| 20260503234810 | 51 | 250 | 0.9 | 3.5 | 0.00 | 0.00 | 0.00 | 45 | 1006.8 |
| 20260503234039 | 51 | 240 | 0.9 | 3.5 | 0.00 | 0.00 | 0.00 | 44 | 1006.7 |
| 20260503233539 | 51 | 252 | 0.9 | 4.3 | 0.00 | 0.00 | 0.00 | 44 | 1006.7 |
| 20260503233040 | 51 | 245 | 0.9 | 5.2 | 0.00 | 0.00 | 0.00 | 44 | 1006.7 |
| 20260503232539 | 51 | 245 | 0.9 | 5.2 | 0.00 | 0.00 | 0.00 | 43 | 1006.7 |
| 20260503232039 | 52 | 186 | 0.9 | 7.0 | 0.00 | 0.00 | 0.00 | 44 | 1006.7 |
| 20260503231538 | 52 | 261 | 0.9 | 7.0 | 0.00 | 0.00 | 0.00 | 42 | 1006.7 |
| 20260503231035 | 52 | 210 | 0.9 | 4.3 | 0.00 | 0.00 | 0.00 | 42 | 1006.7 |
| 20260503230534 | 53 | 251 | 0.9 | 4.3 | 0.00 | 0.00 | 0.00 | 39 | 1006.7 |
| 20260503230032 | 53 | 243 | 0.9 | 6.1 | 0.00 | 0.00 | 0.00 | 40 | 1006.6 |
| 20260503225530 | 54 | 91 | 1.7 | 6.1 | 0.00 | 0.00 | 0.00 | 39 | 1006.6 |
| 20260503225030 | 55 | 257 | 1.7 | 7.0 | 0.00 | 0.00 | 0.00 | 39 | 1006.7 |
| 20260503224530 | 55 | 272 | 1.7 | 7.0 | 0.00 | 0.00 | 0.00 | 38 | 1006.7 |
| 20260503224031 | 55 | 302 | 1.7 | 7.0 | 0.00 | 0.00 | 0.00 | 39 | 1006.7 |
| 20260503223528 | 54 | 229 | 1.7 | 8.7 | 0.00 | 0.00 | 0.00 | 38 | 1006.7 |
| 20260503223026 | 55 | 210 | 1.7 | 8.7 | 0.00 | 0.00 | 0.00 | 37 | 1006.7 |
| 20260503222527 | 55 | 266 | 1.7 | 8.7 | 0.00 | 0.00 | 0.00 | 39 | 1006.7 |
| 20260503222026 | 55 | 210 | 1.7 | 8.7 | 0.00 | 0.00 | 0.00 | 39 | 1006.7 |
| 20260503221525 | 55 | 85 | 1.7 | 7.0 | 0.00 | 0.00 | 0.00 | 37 | 1006.7 |
| 20260503221025 | 55 | 13 | 0.9 | 5.2 | 0.00 | 0.00 | 0.00 | 39 | 1006.7 |
| 20260503220526 | 54 | 297 | 0.9 | 6.1 | 0.00 | 0.00 | 0.00 | 41 | 1006.8 |
| 20260503220022 | 54 | 257 | 1.7 | 6.1 | 0.00 | 0.00 | 0.00 | 39 | 1006.8 |
| 20260503215520 | 55 | 228 | 1.7 | 7.8 | 0.00 | 0.00 | 0.00 | 38 | 1006.7 |
| 20260503215250 | 56 | 353 | 1.7 | 7.8 | 0.00 | 0.00 | 0.00 | 37 | 1006.7 |
| 20260503214518 | 56 | 275 | 1.7 | 5.2 | 0.00 | 0.00 | 0.00 | 39 | 1006.8 |
| 20260503214245 | 55 | 250 | 2.6 | 7.8 | 0.00 | 0.02 | 0.00 | 38 | 1006.8 |
| 20260503213515 | 54 | 236 | 2.6 | 7.8 | 0.00 | 0.02 | 0.00 | 37 | 1006.8 |
| 20260503213014 | 54 | 44 | 1.7 | 7.0 | 0.00 | 0.04 | 0.00 | 37 | 1006.8 |
| 20260503212515 | 54 | 274 | 0.9 | 4.3 | 0.00 | 0.04 | 0.00 | 38 | 1006.8 |
| 20260503212008 | 55 | 234 | 0.9 | 5.2 | 0.00 | 0.04 | 0.00 | 39 | 1006.8 |
| 20260503211737 | 55 | 48 | 1.7 | 5.2 | 0.00 | 0.04 | 0.00 | 38 | 1006.8 |
| 20260503210503 | 56 | 349 | 1.7 | 7.8 | 0.00 | 0.04 | 0.00 | 39 | 1006.8 |
| 20260503210000 | 56 | 294 | 1.7 | 7.0 | 0.00 | 0.04 | 0.00 | 37 | 1006.8 |
| 20260503205501 | 56 | 141 | 1.7 | 7.0 | 0.00 | 0.04 | 0.00 | 39 | 1006.8 |
| 20260503204955 | 56 | 233 | 0.9 | 4.3 | 0.00 | 0.04 | 0.00 | 39 | 1006.8 |
| 20260503204454 | 55 | 274 | 0.9 | 5.2 | 0.00 | 0.04 | 0.00 | 40 | 1006.9 |
| 20260503203952 | 55 | 266 | 2.6 | 7.0 | 0.00 | 0.04 | 0.00 | 38 | 1006.9 |
| 20260503203450 | 56 | 280 | 2.6 | 7.8 | 0.00 | 0.04 | 0.00 | 38 | 1007.0 |
| 20260503202950 | 56 | 255 | 1.7 | 9.6 | 0.00 | 0.04 | 0.00 | 41 | 1006.9 |
| 20260503202450 | 55 | 274 | 1.7 | 9.6 | 0.00 | 0.04 | 0.00 | 42 | 1006.9 |
| 20260503201947 | 54 | 306 | 0.9 | 7.0 | 0.00 | 0.04 | 0.00 | 42 | 1006.9 |
| 20260503201721 | 53 | 287 | 0.9 | 8.7 | 0.00 | 0.04 | 0.00 | 42 | 1007.1 |
| 20260503200948 | 54 | 299 | 1.7 | 8.7 | 0.00 | 0.04 | 0.00 | 41 | 1007.1 |
| 20260503200719 | 54 | 244 | 2.6 | 8.7 | 0.00 | 0.04 | 0.00 | 40 | 1007.2 |
| 20260503195947 | 55 | 234 | 2.6 | 9.6 | 0.00 | 0.04 | 0.00 | 43 | 1007.3 |
| 20260503195448 | 54 | 208 | 1.7 | 9.6 | 0.00 | 0.04 | 0.00 | 42 | 1007.3 |
| 20260503194948 | 54 | 250 | 2.6 | 10.4 | 0.00 | 0.04 | 0.00 | 42 | 1007.3 |
| 20260503194448 | 54 | 290 | 2.6 | 10.4 | 0.00 | 0.04 | 0.00 | 42 | 1007.4 |
| 20260503193949 | 54 | 243 | 2.6 | 7.8 | 0.00 | 0.04 | 0.00 | 42 | 1007.5 |
| 20260503193444 | 53 | 273 | 2.6 | 10.4 | 0.00 | 0.04 | 0.00 | 44 | 1007.6 |
| 20260503192944 | 53 | 271 | 1.7 | 10.4 | 0.00 | 0.04 | 0.00 | 45 | 1007.6 |
| 20260503192444 | 54 | 206 | 1.7 | 7.8 | 0.00 | 0.05 | 0.00 | 43 | 1007.7 |
| 20260503191945 | 53 | 246 | 2.6 | 10.4 | 0.00 | 0.05 | 0.00 | 44 | 1007.7 |
| 20260503191445 | 52 | 256 | 2.6 | 10.4 | 0.00 | 0.05 | 0.00 | 44 | 1007.8 |
| 20260503190943 | 52 | 257 | 1.7 | 7.0 | 0.00 | 0.05 | 0.00 | 46 | 1007.9 |
| 20260503190443 | 51 | 231 | 1.7 | 7.8 | 0.00 | 0.05 | 0.00 | 46 | 1007.9 |
| 20260503185944 | 51 | 218 | 2.6 | 7.8 | 0.00 | 0.05 | 0.00 | 47 | 1008.0 |
| 20260503185444 | 51 | 190 | 2.6 | 7.0 | 0.00 | 0.05 | 0.00 | 45 | 1008.0 |
| 20260503184945 | 51 | 231 | 1.7 | 7.0 | 0.00 | 0.05 | 0.00 | 47 | 1008.1 |
| 20260503184439 | 51 | 84 | 2.6 | 7.0 | 0.00 | 0.05 | 0.00 | 46 | 1008.1 |
| 20260503183932 | 51 | 281 | 1.7 | 7.0 | 0.00 | 0.05 | 0.00 | 45 | 1008.2 |
| 20260503183426 | 52 | 215 | 1.7 | 7.0 | 0.00 | 0.05 | 0.00 | 47 | 1008.1 |
| 20260503182926 | 53 | 327 | 2.6 | 7.0 | 0.00 | 0.05 | 0.00 | 47 | 1008.2 |
| 20260503181925 | 52 | 290 | 2.6 | 9.6 | 0.00 | 0.05 | 0.00 | 46 | 1008.2 |
| 20260503181425 | 52 | 272 | 1.7 | 7.8 | 0.00 | 0.05 | 0.00 | 47 | 1008.3 |
| 20260503180926 | 53 | 179 | 1.7 | 7.0 | 0.00 | 0.06 | 0.00 | 47 | 1008.3 |
| 20260503180426 | 53 | 305 | 2.6 | 7.0 | 0.00 | 0.06 | 0.00 | 46 | 1008.4 |
| 20260503175926 | 52 | 313 | 2.6 | 7.8 | 0.00 | 0.07 | 0.00 | 49 | 1008.4 |
| 20260503175419 | 51 | 234 | 1.7 | 7.8 | 0.00 | 0.08 | 0.00 | 51 | 1008.5 |
| 20260503174920 | 51 | 271 | 1.7 | 7.0 | 0.00 | 0.09 | 0.00 | 51 | 1008.5 |
| 20260503174420 | 51 | 316 | 1.7 | 7.0 | 0.00 | 0.11 | 0.00 | 48 | 1008.5 |
| 20260503173920 | 51 | 113 | 1.7 | 7.8 | 0.00 | 0.12 | 0.00 | 50 | 1008.6 |
| 20260503173653 | 51 | 240 | 1.7 | 7.8 | 0.00 | 0.14 | 0.00 | 50 | 1008.5 |
| 20260503172920 | 51 | 79 | 1.7 | 6.1 | 0.00 | 0.17 | 0.00 | 54 | 1008.7 |
| 20260503172651 | 49 | 240 | 2.6 | 9.6 | 0.00 | 0.18 | 0.00 | 52 | 1008.7 |
| 20260503171920 | 50 | 274 | 1.7 | 9.6 | 0.00 | 0.18 | 0.00 | 50 | 1008.8 |
| 20260503171419 | 51 | 25 | 1.7 | 7.0 | 0.00 | 0.18 | 0.00 | 48 | 1008.8 |
| 20260503170911 | 51 | 223 | 1.7 | 7.8 | 0.00 | 0.18 | 0.00 | 47 | 1008.8 |
| 20260503170412 | 51 | 249 | 2.6 | 7.8 | 0.00 | 0.18 | 0.00 | 47 | 1008.9 |
| 20260503170142 | 51 | 245 | 1.7 | 6.1 | 0.00 | 0.18 | 0.00 | 48 | 1008.8 |
| 20260503150852 | 50 | 252 | 0.9 | 4.3 | 0.00 | 0.18 | 0.00 | 55 | 1010.1 |
| 20260503150352 | 50 | 338 | 0.9 | 4.3 | 0.00 | 0.18 | 0.00 | 58 | 1010.2 |
| 20260503140116 | 49 | 65 | 0.0 | 3.5 | 0.00 | 0.18 | 0.00 | 70 | 1010.8 |
| 20260503130331 | 45 | 271 | 0.0 | 1.7 | 0.00 | 0.20 | 0.00 | 77 | 1011.0 |
| 20260503110823 | 41 | 60 | 0.0 | 2.6 | 0.00 | 0.24 | 0.00 | 89 | 1010.9 |
| 20260503110554 | 40 | 276 | 0.0 | 1.7 | 0.00 | 0.24 | 0.00 | 91 | 1010.9 |